M I D A S
Marine Information and Data Acquisition System
Tripno 841 of the Zeeleeuw from 2005-01-25 07:31:36 to 2005-01-25 16:34:44
Back to CruiseResearch ActivitiesStationsMapUnderway DataData graphs

EquipmentUnitsComments
TimeDGPSUTC
LatitudeDGPSDM.mWGS84
LongitudeDGPSDM.mWGS84
SpeedMeteo Stationm/sRelative wind speed
DirectionMeteo StationdegRelative wind direction
TemperatureMeteo Stationdeg CelciusAir temperature
PressureMeteo StationPaAtmospheric pressure
HumidityMeteo Station%Relative humidity
Missing or incorrect values are displayed as -999
Metereological data collected by the RV Zeeleeuw from 2005-01-25 07:32:50 to 2005-01-25 16:45:10
                                                                                    Next 1000 lines
Time Latitude Longitude Speed Direction Temperature Pressure Humidity
2005-01-25 07:33:00 51°13.595 2°56.098 3.6 271 0.9 102600 100
2005-01-25 07:33:05 51°13.596 2°56.094 3.7 293 0.9 102600 100
2005-01-25 07:33:11 51°13.597 2°56.09 5.1 298 0.9 102600 100
2005-01-25 07:33:16 51°13.599 2°56.086 4.3 304 0.9 102600 100
2005-01-25 07:33:21 51°13.6 2°56.081 2.9 296 0.9 102600 100
2005-01-25 07:33:27 51°13.602 2°56.076 2.5 271 0.9 102580 100
2005-01-25 07:33:31 51°13.603 2°56.071 1.8 236 0.9 102580 100
2005-01-25 07:33:36 51°13.605 2°56.066 1.6 255 0.9 102570 100
2005-01-25 07:33:41 51°13.606 2°56.06 2.7 253 0.9 102570 100
2005-01-25 07:33:45 51°13.608 2°56.056 3.4 246 0.9 102570 100
2005-01-25 07:33:51 51°13.609 2°56.049 5.2 275 0.9 102570 100
2005-01-25 07:33:56 51°13.611 2°56.043 4.7 279 0.9 102570 100
2005-01-25 07:34:01 51°13.613 2°56.036 2.3 270 0.9 102570 100
2005-01-25 07:34:07 51°13.615 2°56.029 2.6 250 0.9 102570 100
2005-01-25 07:34:11 51°13.617 2°56.023 2.4 246 0.9 102570 100
2005-01-25 07:34:16 51°13.619 2°56.016 2.9 256 0.9 102570 100
2005-01-25 07:34:21 51°13.621 2°56.009 2.5 251 0.9 102570 100
2005-01-25 07:34:25 51°13.623 2°56.003 3.3 247 0.9 102570 100
2005-01-25 07:34:32 51°13.627 2°55.994 2.1 249 0.9 102570 100
2005-01-25 07:34:36 51°13.63 2°55.987 3.3 256 0.9 102570 100
2005-01-25 07:34:41 51°13.633 2°55.98 2.8 254 0.9 102570 100
2005-01-25 07:34:45 51°13.635 2°55.974 2.8 259 0.9 102570 100
2005-01-25 07:34:51 51°13.639 2°55.965 2.1 255 0.9 102570 100
2005-01-25 07:34:56 51°13.641 2°55.957 3.5 261 0.9 102570 100
2005-01-25 07:35:01 51°13.644 2°55.95 3.6 264 0.9 102570 100
2005-01-25 07:35:05 51°13.646 2°55.944 3.3 241 0.9 102570 100
2005-01-25 07:35:11 51°13.651 2°55.935 3.1 251 0.9 102570 100
2005-01-25 07:35:17 51°13.655 2°55.926 3.2 241 0.9 102580 100
2005-01-25 07:35:21 51°13.659 2°55.919 3.1 262 0.9 102580 100
2005-01-25 07:35:26 51°13.663 2°55.91 3.8 243 0.9 102570 100
2005-01-25 07:35:31 51°13.666 2°55.902 4.2 229 0.9 102570 100
2005-01-25 07:35:36 51°13.669 2°55.895 3.2 233 0.9 102610 100
2005-01-25 07:35:41 51°13.673 2°55.887 3.9 248 0.9 102610 100
2005-01-25 07:35:46 51°13.676 2°55.878 2.9 230 0.9 102570 100
2005-01-25 07:35:52 51°13.68 2°55.87 3.5 247 0.9 102570 100
2005-01-25 07:35:56 51°13.683 2°55.862 2.5 252 0.9 102570 100
2005-01-25 07:36:01 51°13.686 2°55.854 3.3 276 0.9 102570 100
2005-01-25 07:36:05 51°13.688 2°55.848 4.8 269 0.9 102580 100
2005-01-25 07:36:11 51°13.692 2°55.838 3.2 261 0.9 102580 100
2005-01-25 07:36:16 51°13.694 2°55.83 2.6 247 0.9 102580 100
2005-01-25 07:36:21 51°13.698 2°55.82 2.8 247 0.9 102580 100
2005-01-25 07:36:26 51°13.7 2°55.811 2.2 254 0.9 102570 100
2005-01-25 07:36:31 51°13.703 2°55.8 2.8 241 0.9 102570 100
2005-01-25 07:36:36 51°13.705 2°55.791 2.8 251 0.9 102580 100
2005-01-25 07:36:41 51°13.707 2°55.78 1.8 240 0.9 102580 100
2005-01-25 07:36:46 51°13.709 2°55.77 2 236 0.9 102570 100
2005-01-25 07:36:51 51°13.71 2°55.76 2.1 246 0.9 102570 100
2005-01-25 07:36:56 51°13.712 2°55.752 2.7 245 1 102570 100
2005-01-25 07:37:01 51°13.713 2°55.742 3.3 302 1 102570 100
2005-01-25 07:37:05 51°13.714 2°55.736 2.7 233 1 102560 99
2005-01-25 07:37:11 51°13.715 2°55.729 2.3 307 1 102560 99
2005-01-25 07:37:16 51°13.715 2°55.726 2 304 1 102570 99
2005-01-25 07:37:20 51°13.716 2°55.723 2.3 310 1 102570 99
2005-01-25 07:37:25 51°13.716 2°55.722 2.8 304 1 102590 99
2005-01-25 07:37:30 51°13.716 2°55.722 4.1 321 1 102590 99
2005-01-25 07:37:36 51°13.716 2°55.724 4.7 323 1 102580 99
2005-01-25 07:37:41 51°13.718 2°55.726 3.8 345 1 102580 99
2005-01-25 07:37:45 51°13.719 2°55.728 3.4 351 1 102570 99
2005-01-25 07:37:51 51°13.721 2°55.732 3.5 347 1 102570 99
2005-01-25 07:37:56 51°13.723 2°55.734 3.6 346 1 102600 99
2005-01-25 07:38:00 51°13.724 2°55.735 4.5 28 1 102600 99
2005-01-25 07:38:05 51°13.725 2°55.736 3.7 7 1 102580 99
2005-01-25 07:38:11 51°13.725 2°55.735 3.1 8 1 102580 99
2005-01-25 07:38:16 51°13.725 2°55.734 2.7 357 1 102580 99
2005-01-25 07:38:20 51°13.723 2°55.733 2 2 1 102580 99
2005-01-25 07:38:26 51°13.722 2°55.73 1.7 7 1 102580 99
2005-01-25 07:38:31 51°13.719 2°55.728 1.3 344 1 102580 99
2005-01-25 07:38:36 51°13.717 2°55.725 1.5 20 1 102560 99
2005-01-25 07:38:41 51°13.715 2°55.724 1.6 33 1 102560 99
2005-01-25 07:38:47 51°13.714 2°55.722 1.8 9 1 102560 99
2005-01-25 07:38:51 51°13.714 2°55.722 2.6 5 1 102560 99
2005-01-25 07:38:56 51°13.715 2°55.723 2.9 12 1 102560 99
2005-01-25 07:39:01 51°13.717 2°55.723 2.7 51 1 102560 99
2005-01-25 07:39:06 51°13.72 2°55.722 3.6 30 1 102590 99
2005-01-25 07:39:11 51°13.724 2°55.721 4.2 39 1 102590 99
2005-01-25 07:39:17 51°13.729 2°55.719 4.2 44 1 102570 99
2005-01-25 07:39:21 51°13.733 2°55.716 2.7 59 1 102570 99
2005-01-25 07:39:25 51°13.737 2°55.713 3.2 60 1.1 102590 99
2005-01-25 07:39:31 51°13.743 2°55.707 3.4 27 1.1 102590 99
2005-01-25 07:39:36 51°13.75 2°55.701 4.5 42 1.1 102560 98
2005-01-25 07:39:40 51°13.755 2°55.697 4.8 15 1.1 102560 98
2005-01-25 07:39:45 51°13.763 2°55.689 4.2 20 1 102560 98
2005-01-25 07:39:51 51°13.772 2°55.682 4.4 61 1 102560 98
2005-01-25 07:39:56 51°13.78 2°55.674 3.8 30 1 102570 98
2005-01-25 07:40:01 51°13.789 2°55.665 4.8 360 1 102570 98
2005-01-25 07:40:06 51°13.798 2°55.658 4.7 37 1.1 102570 98
2005-01-25 07:40:11 51°13.806 2°55.65 5.1 19 1.1 102570 98
2005-01-25 07:40:16 51°13.816 2°55.642 6.7 40 1.1 102570 98
2005-01-25 07:40:21 51°13.826 2°55.634 5.4 31 1.1 102570 98
2005-01-25 07:40:25 51°13.834 2°55.626 5.4 37 1.1 102570 97
2005-01-25 07:40:31 51°13.846 2°55.616 6.3 42 1.1 102570 97
2005-01-25 07:40:36 51°13.855 2°55.608 6.2 41 1.1 102570 97
2005-01-25 07:40:41 51°13.866 2°55.6 6.7 41 1.1 102570 97
2005-01-25 07:40:45 51°13.875 2°55.592 6.5 47 1.1 102570 97
2005-01-25 07:40:51 51°13.887 2°55.584 5.9 44 1.1 102570 97
2005-01-25 07:40:56 51°13.898 2°55.576 6.5 39 1.1 102570 96
2005-01-25 07:41:01 51°13.908 2°55.567 8 39 1.1 102570 96
2005-01-25 07:41:05 51°13.918 2°55.56 7.6 43 1.2 102570 96
2005-01-25 07:41:11 51°13.93 2°55.551 6.6 35 1.2 102570 96
2005-01-25 07:41:16 51°13.941 2°55.544 5.5 44 1.2 102560 95
2005-01-25 07:41:21 51°13.952 2°55.536 5.3 44 1.2 102560 95
2005-01-25 07:41:25 51°13.962 2°55.529 7.4 53 1.2 102560 95
2005-01-25 07:41:31 51°13.975 2°55.519 7.3 49 1.2 102560 95
2005-01-25 07:41:36 51°13.985 2°55.512 6.8 46 1.2 102590 94
2005-01-25 07:41:40 51°13.994 2°55.505 7.1 57 1.2 102590 94
2005-01-25 07:41:45 51°14.006 2°55.495 6.7 59 1.3 102560 93
2005-01-25 07:41:50 51°14.017 2°55.488 5.6 43 1.3 102560 93
2005-01-25 07:41:56 51°14.03 2°55.479 5.3 65 1.3 102560 93
2005-01-25 07:42:00 51°14.039 2°55.473 6.5 39 1.3 102560 93
2005-01-25 07:42:05 51°14.052 2°55.464 6.5 40 1.4 102560 92
2005-01-25 07:42:11 51°14.064 2°55.456 6.8 48 1.4 102560 92
2005-01-25 07:42:16 51°14.076 2°55.448 6.6 37 1.4 102560 92
2005-01-25 07:42:20 51°14.085 2°55.442 5.7 33 1.4 102560 92
2005-01-25 07:42:25 51°14.097 2°55.433 5.4 36 1.5 102560 91
2005-01-25 07:42:31 51°14.109 2°55.424 6.4 44 1.5 102560 91
2005-01-25 07:42:36 51°14.121 2°55.416 7.2 51 1.5 102560 91
2005-01-25 07:42:40 51°14.13 2°55.409 8.4 43 1.5 102560 91
2005-01-25 07:42:45 51°14.142 2°55.401 9.6 56 1.5 102560 90
2005-01-25 07:42:51 51°14.154 2°55.391 9 54 1.5 102560 90
2005-01-25 07:42:56 51°14.165 2°55.381 10.1 58 1.6 102570 90
2005-01-25 07:43:01 51°14.175 2°55.37 10 69 1.6 102570 90
2005-01-25 07:43:05 51°14.184 2°55.36 10.1 78 1.6 102560 90
2005-01-25 07:43:11 51°14.195 2°55.347 9.7 82 1.6 102560 90
2005-01-25 07:43:16 51°14.204 2°55.335 9.3 81 1.7 102560 90
2005-01-25 07:43:20 51°14.213 2°55.324 7.2 81 1.7 102560 90
2005-01-25 07:43:25 51°14.222 2°55.311 7.7 67 1.7 102580 89
2005-01-25 07:43:31 51°14.232 2°55.295 5.7 94 1.7 102580 89
2005-01-25 07:43:36 51°14.24 2°55.282 6 86 1.8 102540 88
2005-01-25 07:43:41 51°14.249 2°55.268 5 77 1.8 102540 88
2005-01-25 07:43:45 51°14.257 2°55.255 8.2 90 1.8 102540 87
2005-01-25 07:43:51 51°14.266 2°55.237 6.7 65 1.8 102540 87
2005-01-25 07:43:56 51°14.274 2°55.224 5.6 89 1.9 102550 87
2005-01-25 07:44:00 51°14.281 2°55.211 5.9 60 1.9 102550 87
2005-01-25 07:44:05 51°14.29 2°55.194 6.1 66 1.9 102550 87
2005-01-25 07:44:10 51°14.299 2°55.178 9.1 88 1.9 102550 87
2005-01-25 07:44:16 51°14.309 2°55.159 7.5 85 2 102560 86
2005-01-25 07:44:20 51°14.316 2°55.146 5.9 58 2 102560 86
2005-01-25 07:44:25 51°14.325 2°55.127 6.9 68 2.1 102550 86
2005-01-25 07:44:30 51°14.333 2°55.112 7.2 69 2.1 102550 86
2005-01-25 07:44:36 51°14.345 2°55.091 5.7 22 2.2 102550 86
2005-01-25 07:44:41 51°14.355 2°55.074 6 37 2.2 102550 86
2005-01-25 07:44:45 51°14.364 2°55.057 7.9 40 2.2 102550 85
2005-01-25 07:44:50 51°14.373 2°55.041 10.4 61 2.2 102550 85
2005-01-25 07:44:56 51°14.386 2°55.019 9.5 71 2.3 102550 85
2005-01-25 07:45:01 51°14.396 2°55 8.5 69 2.3 102550 85
2005-01-25 07:45:05 51°14.405 2°54.983 9 75 2.3 102550 84
2005-01-25 07:45:11 51°14.416 2°54.962 10.5 61 2.3 102550 84
2005-01-25 07:45:16 51°14.426 2°54.941 10.4 65 2.4 102540 84
2005-01-25 07:45:20 51°14.436 2°54.923 10.3 59 2.4 102540 84
2005-01-25 07:45:25 51°14.444 2°54.903 9.6 54 2.5 102530 84
2005-01-25 07:45:31 51°14.454 2°54.881 8.4 81 2.5 102530 84
2005-01-25 07:45:36 51°14.467 2°54.861 9.8 57 2.6 102520 84
2005-01-25 07:45:40 51°14.476 2°54.847 11.5 53 2.6 102520 84
2005-01-25 07:45:45 51°14.49 2°54.829 11.7 56 2.6 102520 84
2005-01-25 07:45:51 51°14.505 2°54.813 10.3 49 2.6 102520 84
2005-01-25 07:45:56 51°14.52 2°54.8 10.4 46 2.6 102520 82
2005-01-25 07:46:01 51°14.532 2°54.789 11.6 43 2.6 102520 82
2005-01-25 07:46:05 51°14.545 2°54.779 11.6 45 2.6 102520 81
2005-01-25 07:46:11 51°14.562 2°54.766 12.3 43 2.6 102520 81
2005-01-25 07:46:16 51°14.576 2°54.757 12.8 45 2.6 102520 81
2005-01-25 07:46:21 51°14.59 2°54.747 13.6 43 2.6 102520 81
2005-01-25 07:46:25 51°14.603 2°54.739 13.4 51 2.6 102560 82
2005-01-25 07:46:31 51°14.62 2°54.728 13.6 51 2.6 102560 82
2005-01-25 07:46:36 51°14.633 2°54.719 14.2 49 2.7 102570 81
2005-01-25 07:46:40 51°14.645 2°54.711 13 49 2.7 102570 81
2005-01-25 07:46:45 51°14.66 2°54.699 12.7 52 2.7 102520 81
2005-01-25 07:46:51 51°14.676 2°54.687 12.6 57 2.7 102520 81
2005-01-25 07:46:56 51°14.69 2°54.676 12 61 2.7 102520 79
2005-01-25 07:47:01 51°14.704 2°54.666 13.2 57 2.7 102520 79
2005-01-25 07:47:05 51°14.717 2°54.657 13.8 55 2.6 102510 77
2005-01-25 07:47:09 51°14.728 2°54.649 13.3 54 2.6 102510 77
2005-01-25 07:47:16 51°14.747 2°54.636 14.7 55 2.6 102560 77
2005-01-25 07:47:21 51°14.763 2°54.627 15.7 53 2.6 102560 77
2005-01-25 07:47:25 51°14.775 2°54.619 15.5 49 2.7 102520 77
2005-01-25 07:47:31 51°14.792 2°54.608 15.2 50 2.7 102520 77
2005-01-25 07:47:35 51°14.804 2°54.602 15.2 51 2.7 102510 76
2005-01-25 07:47:41 51°14.822 2°54.593 16 48 2.7 102510 76
2005-01-25 07:47:45 51°14.834 2°54.587 15.6 52 2.7 102510 75
2005-01-25 07:47:51 51°14.85 2°54.58 16.3 48 2.7 102510 75
2005-01-25 07:47:56 51°14.865 2°54.575 16.8 47 2.7 102550 75
2005-01-25 07:48:00 51°14.878 2°54.57 16.1 54 2.7 102550 75
2005-01-25 07:48:06 51°14.895 2°54.563 15.5 56 2.7 102510 74
2005-01-25 07:48:11 51°14.911 2°54.557 13.7 52 2.7 102510 74
2005-01-25 07:48:16 51°14.924 2°54.55 13.6 54 2.8 102560 73
2005-01-25 07:48:20 51°14.937 2°54.543 14.1 52 2.8 102560 73
2005-01-25 07:48:25 51°14.952 2°54.535 13.9 53 2.8 102550 71
2005-01-25 07:48:31 51°14.969 2°54.525 14.3 56 2.8 102550 71
2005-01-25 07:48:36 51°14.982 2°54.518 14 56 2.7 102500 69
2005-01-25 07:48:41 51°14.996 2°54.509 13 58 2.7 102500 69
2005-01-25 07:48:46 51°15.011 2°54.501 12.7 62 2.8 102510 69
2005-01-25 07:48:51 51°15.025 2°54.492 14 58 2.8 102510 69
2005-01-25 07:48:56 51°15.04 2°54.483 13 64 2.8 102510 68
2005-01-25 07:49:01 51°15.054 2°54.475 12.4 61 2.8 102510 68
2005-01-25 07:49:05 51°15.066 2°54.468 12.5 60 2.8 102510 68
2005-01-25 07:49:11 51°15.082 2°54.458 12.2 61 2.8 102510 68
2005-01-25 07:49:16 51°15.098 2°54.449 12.4 61 2.8 102510 68
2005-01-25 07:49:20 51°15.109 2°54.442 14.6 58 2.8 102510 68
2005-01-25 07:49:26 51°15.126 2°54.434 13.5 60 2.9 102500 69
2005-01-25 07:49:31 51°15.14 2°54.427 12.3 63 2.9 102500 69
2005-01-25 07:49:36 51°15.155 2°54.421 12.8 63 3 102510 70
2005-01-25 07:49:40 51°15.167 2°54.416 12.9 58 3 102510 70
2005-01-25 07:49:46 51°15.186 2°54.408 12.8 64 3 102510 68
2005-01-25 07:49:51 51°15.2 2°54.402 12.7 57 3 102510 68
2005-01-25 07:49:56 51°15.215 2°54.396 13.1 49 3 102510 69
2005-01-25 07:50:01 51°15.23 2°54.389 15.3 58 3 102510 69
2005-01-25 07:50:06 51°15.245 2°54.381 14.3 58 3 102520 69
2005-01-25 07:50:11 51°15.259 2°54.374 15.3 60 3 102520 69
2005-01-25 07:50:16 51°15.273 2°54.366 15 59 3.1 102510 69
2005-01-25 07:50:21 51°15.288 2°54.358 14.4 59 3.1 102510 69
2005-01-25 07:50:26 51°15.302 2°54.35 14.4 61 3.1 102510 69
2005-01-25 07:50:31 51°15.318 2°54.341 14.7 60 3.1 102510 69
2005-01-25 07:50:36 51°15.331 2°54.335 15.8 63 3.1 102500 68
2005-01-25 07:50:41 51°15.345 2°54.327 15.5 62 3.1 102500 68
2005-01-25 07:50:45 51°15.359 2°54.321 15.7 59 3 102500 66
2005-01-25 07:50:51 51°15.376 2°54.312 14.8 56 3 102500 66
2005-01-25 07:50:56 51°15.389 2°54.307 15.1 53 3 102500 65
2005-01-25 07:51:01 51°15.405 2°54.299 14.3 54 3 102500 65
2005-01-25 07:51:05 51°15.417 2°54.294 14.3 54 3 102500 64
2005-01-25 07:51:11 51°15.433 2°54.287 14 51 3 102500 64
2005-01-25 07:51:16 51°15.448 2°54.281 14 53 3 102500 66
2005-01-25 07:51:20 51°15.461 2°54.274 14.7 52 3 102500 66
2005-01-25 07:51:26 51°15.477 2°54.265 14.8 56 3 102500 67
2005-01-25 07:51:31 51°15.493 2°54.257 12.5 59 3 102500 67
2005-01-25 07:51:36 51°15.506 2°54.25 13.5 55 3 102510 69
2005-01-25 07:51:41 51°15.52 2°54.243 13.6 57 3 102510 69
2005-01-25 07:51:45 51°15.534 2°54.236 12.3 57 3 102520 68
2005-01-25 07:51:51 51°15.551 2°54.228 12.8 53 3 102520 68
2005-01-25 07:51:55 51°15.563 2°54.222 13.7 52 3 102510 68
2005-01-25 07:52:00 51°15.576 2°54.216 14.1 51 3 102510 68
2005-01-25 07:52:05 51°15.592 2°54.209 14.7 47 3 102520 67
2005-01-25 07:52:10 51°15.605 2°54.203 14.6 49 3 102520 67
2005-01-25 07:52:16 51°15.623 2°54.195 13.5 51 3.1 102510 69
2005-01-25 07:52:20 51°15.635 2°54.19 14.6 45 3.1 102510 69
2005-01-25 07:52:25 51°15.651 2°54.183 14.4 51 3.1 102560 68
2005-01-25 07:52:29 51°15.663 2°54.177 13.6 52 3.1 102560 68
2005-01-25 07:52:36 51°15.681 2°54.168 14.8 52 3.1 102510 65
2005-01-25 07:52:41 51°15.696 2°54.161 13.4 51 3.1 102510 65
2005-01-25 07:52:45 51°15.709 2°54.155 14.5 44 3.1 102510 69
2005-01-25 07:52:51 51°15.726 2°54.146 16.1 46 3.1 102510 69
2005-01-25 07:52:56 51°15.739 2°54.14 14.8 52 3.1 102510 69
2005-01-25 07:53:01 51°15.755 2°54.132 16.7 53 3.1 102510 69
2005-01-25 07:53:05 51°15.767 2°54.126 15.7 50 3.1 102510 70
2005-01-25 07:53:11 51°15.783 2°54.119 14.5 43 3.1 102510 70
2005-01-25 07:53:16 51°15.799 2°54.113 15.7 47 3.1 102500 69
2005-01-25 07:53:20 51°15.809 2°54.11 16 48 3.1 102500 69
2005-01-25 07:53:25 51°15.825 2°54.105 16.1 44 3.1 102510 69
2005-01-25 07:53:31 51°15.841 2°54.101 14.9 40 3.1 102510 69
2005-01-25 07:53:36 51°15.855 2°54.099 16.1 41 3.2 102520 67
2005-01-25 07:53:40 51°15.868 2°54.099 16.4 39 3.2 102520 67
2005-01-25 07:53:45 51°15.883 2°54.099 17.2 30 3.1 102500 64
2005-01-25 07:53:51 51°15.9 2°54.1 16.6 42 3.1 102500 64
2005-01-25 07:53:56 51°15.913 2°54.101 16.6 37 3.1 102510 63
2005-01-25 07:54:01 51°15.927 2°54.103 16.2 29 3.1 102510 63
2005-01-25 07:54:05 51°15.94 2°54.105 15.5 34 3.1 102510 64
2005-01-25 07:54:11 51°15.956 2°54.109 16.3 34 3.1 102510 64
2005-01-25 07:54:16 51°15.97 2°54.113 15.6 35 3.1 102500 64
2005-01-25 07:54:20 51°15.982 2°54.116 16.4 34 3.1 102500 64
2005-01-25 07:54:25 51°15.996 2°54.122 16.6 29 3.2 102510 65
2005-01-25 07:54:31 51°16.011 2°54.128 16.7 30 3.2 102510 65
2005-01-25 07:54:35 51°16.024 2°54.134 15.9 29 3.2 102510 64
2005-01-25 07:54:40 51°16.036 2°54.141 15.7 28 3.2 102510 64
2005-01-25 07:54:45 51°16.05 2°54.149 15.8 30 3.1 102520 63
2005-01-25 07:54:51 51°16.065 2°54.157 16.1 31 3.1 102520 63
2005-01-25 07:54:56 51°16.078 2°54.165 16.3 33 3.1 102530 62
2005-01-25 07:55:01 51°16.091 2°54.173 15.8 32 3.1 102530 62
2005-01-25 07:55:05 51°16.102 2°54.178 15.4 35 3.1 102520 63
2005-01-25 07:55:11 51°16.115 2°54.184 14.2 35 3.1 102520 63
2005-01-25 07:55:16 51°16.126 2°54.189 15.9 32 3.1 102520 61
2005-01-25 07:55:20 51°16.135 2°54.193 16.1 35 3.1 102520 61
2005-01-25 07:55:25 51°16.145 2°54.197 14.9 35 3.1 102520 62
2005-01-25 07:55:30 51°16.155 2°54.201 14.9 31 3.1 102520 62
2005-01-25 07:55:36 51°16.164 2°54.206 15.3 25 3.1 102540 65
2005-01-25 07:55:41 51°16.172 2°54.212 15.6 27 3.1 102540 65
2005-01-25 07:55:45 51°16.179 2°54.217 15.5 26 3.1 102550 62
2005-01-25 07:55:51 51°16.186 2°54.225 14.2 21 3.1 102550 62
2005-01-25 07:55:56 51°16.193 2°54.233 13.4 15 3.1 102540 60
2005-01-25 07:56:01 51°16.197 2°54.24 15 16 3.1 102540 60
2005-01-25 07:56:05 51°16.201 2°54.245 13.5 15 3.1 102540 60
2005-01-25 07:56:11 51°16.206 2°54.252 12.9 14 3.1 102540 60
2005-01-25 07:56:16 51°16.21 2°54.258 13.5 18 3.1 102550 61
2005-01-25 07:56:21 51°16.214 2°54.264 13.3 17 3.1 102550 61
2005-01-25 07:56:25 51°16.216 2°54.268 12.8 14 3.1 102570 61
2005-01-25 07:56:31 51°16.22 2°54.273 13.4 19 3.1 102570 61
2005-01-25 07:56:36 51°16.222 2°54.277 13.4 19 3.1 102560 60
2005-01-25 07:56:40 51°16.224 2°54.281 12.8 16 3.1 102560 60
2005-01-25 07:56:45 51°16.227 2°54.285 13.7 16 3.1 102560 62
2005-01-25 07:56:51 51°16.229 2°54.288 13 16 3.1 102560 62
2005-01-25 07:56:56 51°16.229 2°54.29 12.3 20 3.1 102570 62
2005-01-25 07:57:01 51°16.23 2°54.29 11.7 15 3.1 102570 62
2005-01-25 07:57:06 51°16.23 2°54.29 10.5 17 3.1 102580 62
2005-01-25 07:57:11 51°16.229 2°54.29 12.6 24 3.1 102580 62
2005-01-25 07:57:16 51°16.229 2°54.288 11.6 23 3 102560 62
2005-01-25 07:57:21 51°16.229 2°54.289 10.6 23 3 102560 62
2005-01-25 07:57:25 51°16.229 2°54.287 9.8 25 3 102560 61
2005-01-25 07:57:31 51°16.228 2°54.285 11.7 29 3 102560 61
2005-01-25 07:57:36 51°16.228 2°54.283 11.5 31 3 102570 61
2005-01-25 07:57:41 51°16.228 2°54.282 11.3 38 3 102570 61
2005-01-25 07:57:45 51°16.227 2°54.28 11.6 40 3 102580 62
2005-01-25 07:57:51 51°16.227 2°54.278 11.1 44 3 102580 62
2005-01-25 07:57:56 51°16.226 2°54.275 12 45 3 102570 62
2005-01-25 07:58:00 51°16.226 2°54.273 11.3 43 3 102570 62
2005-01-25 07:58:06 51°16.225 2°54.27 13.1 50 3 102570 62
2005-01-25 07:58:10 51°16.224 2°54.267 11.4 57 3 102570 62
2005-01-25 07:58:16 51°16.224 2°54.264 12 56 3 102570 61
2005-01-25 07:58:20 51°16.223 2°54.261 10.9 57 3 102570 61
2005-01-25 07:58:25 51°16.222 2°54.258 10.8 56 3 102560 60
2005-01-25 07:58:31 51°16.221 2°54.254 10.7 60 3 102560 60
2005-01-25 07:58:36 51°16.22 2°54.251 10.8 54 3 102560 60
2005-01-25 07:58:40 51°16.22 2°54.248 11.3 56 3 102560 60
2005-01-25 07:58:46 51°16.219 2°54.244 13 56 3 102560 60
2005-01-25 07:58:51 51°16.218 2°54.241 11.3 51 3 102560 60
2005-01-25 07:58:56 51°16.217 2°54.237 11.3 58 3 102560 62
2005-01-25 07:59:01 51°16.216 2°54.233 11.5 56 3 102560 62
2005-01-25 07:59:05 51°16.215 2°54.23 11.3 64 3 102550 63
2005-01-25 07:59:11 51°16.214 2°54.225 12.8 61 3 102550 63
2005-01-25 07:59:16 51°16.213 2°54.221 12.4 63 3.1 102560 63
2005-01-25 07:59:21 51°16.212 2°54.217 11.9 60 3.1 102560 63
2005-01-25 07:59:26 51°16.211 2°54.213 12.1 66 3.1 102560 63
2005-01-25 07:59:31 51°16.21 2°54.209 10.5 71 3.1 102560 63
2005-01-25 07:59:36 51°16.209 2°54.205 10.1 70 3.1 102550 61
2005-01-25 07:59:40 51°16.208 2°54.202 9.5 77 3.1 102550 61
2005-01-25 07:59:45 51°16.206 2°54.197 10.4 77 3.1 102550 62
2005-01-25 07:59:51 51°16.204 2°54.192 8.7 79 3.1 102550 62
2005-01-25 07:59:56 51°16.203 2°54.189 10.1 83 3 102560 61
2005-01-25 08:00:01 51°16.202 2°54.184 11.2 82 3 102560 61
2005-01-25 08:00:05 51°16.2 2°54.181 11.4 85 3 102560 61
2005-01-25 08:00:11 51°16.198 2°54.176 9.8 88 3 102560 61
2005-01-25 08:00:16 51°16.197 2°54.173 9.9 89 3.1 102550 62
2005-01-25 08:00:20 51°16.196 2°54.169 10.8 85 3.1 102550 62
2005-01-25 08:00:26 51°16.194 2°54.164 10.9 86 3.1 102560 64
2005-01-25 08:00:31 51°16.192 2°54.161 11.9 91 3.1 102560 64
2005-01-25 08:00:36 51°16.19 2°54.157 11.7 96 3.1 102560 66
2005-01-25 08:00:40 51°16.188 2°54.153 12.9 95 3.1 102560 66
2005-01-25 08:00:45 51°16.186 2°54.149 12.7 101 3.1 102560 64
2005-01-25 08:00:51 51°16.184 2°54.145 12.4 109 3.1 102560 64
2005-01-25 08:00:56 51°16.182 2°54.141 11.6 101 3.1 102570 63
2005-01-25 08:01:00 51°16.18 2°54.138 11.9 102 3.1 102570 63
2005-01-25 08:01:05 51°16.178 2°54.133 13.1 106 3.1 102570 61
2005-01-25 08:01:11 51°16.176 2°54.129 10.4 111 3.1 102570 61
2005-01-25 08:01:16 51°16.173 2°54.125 11.1 106 3.1 102570 63
2005-01-25 08:01:21 51°16.172 2°54.122 10 113 3.1 102570 63
2005-01-25 08:01:26 51°16.169 2°54.117 10.3 116 3.1 102570 63
2005-01-25 08:01:31 51°16.167 2°54.114 9.6 117 3.1 102570 63
2005-01-25 08:01:36 51°16.165 2°54.11 8.4 118 3.1 102570 61
2005-01-25 08:01:40 51°16.163 2°54.107 8.3 115 3.1 102570 61
2005-01-25 08:01:45 51°16.161 2°54.103 9.1 120 3.1 102580 62
2005-01-25 08:01:50 51°16.159 2°54.1 9.2 117 3.1 102580 62
2005-01-25 08:01:56 51°16.157 2°54.095 9.2 118 3.1 102580 60
2005-01-25 08:02:01 51°16.155 2°54.092 9.8 124 3.1 102580 60
2005-01-25 08:02:05 51°16.153 2°54.089 9.8 125 3.1 102580 63
2005-01-25 08:02:09 51°16.151 2°54.085 9.5 127 3.1 102580 63
2005-01-25 08:02:16 51°16.148 2°54.08 10.2 130 3.1 102590 65
2005-01-25 08:02:21 51°16.146 2°54.077 9.7 123 3.1 102590 65
2005-01-25 08:02:25 51°16.144 2°54.074 11.2 118 3.1 102580 62
2005-01-25 08:02:31 51°16.142 2°54.07 10.4 121 3.1 102580 62
2005-01-25 08:02:36 51°16.139 2°54.066 10.3 117 3.1 102580 61
2005-01-25 08:02:40 51°16.138 2°54.063 11.2 121 3.1 102580 61
2005-01-25 08:02:45 51°16.135 2°54.059 10.7 123 3.1 102580 61
2005-01-25 08:02:51 51°16.133 2°54.055 11.6 125 3.1 102580 61
2005-01-25 08:02:56 51°16.131 2°54.051 12.8 122 3.1 102570 63
2005-01-25 08:03:00 51°16.129 2°54.048 11.6 125 3.1 102570 63
2005-01-25 08:03:05 51°16.126 2°54.044 10.7 125 3.1 102570 64
2005-01-25 08:03:11 51°16.124 2°54.041 10.6 123 3.1 102570 64
2005-01-25 08:03:16 51°16.121 2°54.038 8.8 129 3.1 102570 61
2005-01-25 08:03:21 51°16.119 2°54.034 9.5 127 3.1 102570 61
2005-01-25 08:03:25 51°16.117 2°54.031 11.2 124 3.1 102570 61
2005-01-25 08:03:29 51°16.115 2°54.029 10 128 3.1 102570 61
2005-01-25 08:03:36 51°16.112 2°54.024 10.8 128 3.1 102570 62
2005-01-25 08:03:41 51°16.11 2°54.02 10.1 137 3.1 102570 62
2005-01-25 08:03:45 51°16.108 2°54.018 10.1 118 3.1 102570 64
2005-01-25 08:03:51 51°16.105 2°54.014 8.5 127 3.1 102570 64
2005-01-25 08:03:56 51°16.103 2°54.011 12.5 117 3.1 102570 63
2005-01-25 08:04:00 51°16.101 2°54.008 12.8 125 3.1 102570 63
2005-01-25 08:04:05 51°16.099 2°54.004 13 136 3.1 102570 62
2005-01-25 08:04:11 51°16.096 2°54 11.1 135 3.1 102570 62
2005-01-25 08:04:16 51°16.094 2°53.997 11.9 44 3.2 102580 62
2005-01-25 08:04:20 51°16.092 2°53.994 9.5 127 3.2 102580 62
2005-01-25 08:04:25 51°16.09 2°53.991 11.3 127 3.2 102570 63
2005-01-25 08:04:31 51°16.087 2°53.987 11.6 119 3.2 102570 63
2005-01-25 08:04:36 51°16.085 2°53.984 11.2 121 3.2 102580 63
2005-01-25 08:04:40 51°16.083 2°53.981 11.8 134 3.2 102580 63
2005-01-25 08:04:45 51°16.08 2°53.977 11.9 127 3.2 102580 63
2005-01-25 08:04:51 51°16.078 2°53.974 11.2 131 3.2 102580 63
2005-01-25 08:04:56 51°16.076 2°53.97 10.8 132 3.2 102580 63
2005-01-25 08:05:01 51°16.073 2°53.966 11.6 128 3.2 102580 63
2005-01-25 08:05:06 51°16.071 2°53.963 10.4 131 3.2 102580 64
2005-01-25 08:05:11 51°16.069 2°53.96 11.3 127 3.2 102580 64
2005-01-25 08:05:16 51°16.066 2°53.956 10.3 130 3.2 102580 63
2005-01-25 08:05:21 51°16.064 2°53.953 10.2 130 3.2 102580 63
2005-01-25 08:05:25 51°16.062 2°53.95 9.1 122 3.2 102590 59
2005-01-25 08:05:29 51°16.06 2°53.947 8.7 134 3.2 102590 59
2005-01-25 08:05:36 51°16.057 2°53.943 9.2 121 3.1 102590 56
2005-01-25 08:05:40 51°16.055 2°53.939 10.9 123 3.1 102590 56
2005-01-25 08:05:45 51°16.053 2°53.936 11.4 123 3.2 102580 56
2005-01-25 08:05:51 51°16.051 2°53.932 11.8 127 3.2 102580 56
2005-01-25 08:05:56 51°16.048 2°53.929 12 127 3.2 102580 59
2005-01-25 08:06:01 51°16.046 2°53.925 12 129 3.2 102580 59
2005-01-25 08:06:05 51°16.044 2°53.922 11.6 129 3.2 102580 60
2005-01-25 08:06:09 51°16.042 2°53.919 11.6 130 3.2 102580 60
2005-01-25 08:06:16 51°16.039 2°53.915 12.5 127 3.2 102570 58
2005-01-25 08:06:21 51°16.036 2°53.911 12.1 133 3.2 102570 58
2005-01-25 08:06:25 51°16.035 2°53.908 11.6 132 3.2 102560 57
2005-01-25 08:06:31 51°16.032 2°53.904 11.3 124 3.2 102560 57
2005-01-25 08:06:36 51°16.029 2°53.901 12 130 3.1 102580 56
2005-01-25 08:06:40 51°16.028 2°53.898 11.3 133 3.1 102580 56
2005-01-25 08:06:46 51°16.025 2°53.895 11.1 131 3.1 102570 57
2005-01-25 08:06:51 51°16.022 2°53.89 12.1 131 3.1 102570 57
2005-01-25 08:06:56 51°16.02 2°53.887 11.3 133 3.1 102570 57
2005-01-25 08:07:00 51°16.018 2°53.884 12.2 129 3.1 102570 57
2005-01-25 08:07:06 51°16.016 2°53.881 11.7 129 3.1 102570 55
2005-01-25 08:07:11 51°16.013 2°53.877 9.7 131 3.1 102570 55
2005-01-25 08:07:16 51°16.011 2°53.874 11.5 135 3.1 102580 55
2005-01-25 08:07:20 51°16.009 2°53.871 11.5 129 3.1 102580 55
2005-01-25 08:07:26 51°16.007 2°53.865 11.3 131 3.1 102580 55
2005-01-25 08:07:31 51°16.006 2°53.86 11.5 123 3.1 102580 55
2005-01-25 08:07:36 51°16.005 2°53.854 11.7 128 3.1 102570 55
2005-01-25 08:07:40 51°16.005 2°53.849 10.2 107 3.1 102570 55
2005-01-25 08:07:46 51°16.005 2°53.842 8.7 98 3.1 102570 56
2005-01-25 08:07:51 51°16.006 2°53.834 11 101 3.1 102570 56
2005-01-25 08:07:56 51°16.007 2°53.828 11 84 3.1 102580 57
2005-01-25 08:08:00 51°16.008 2°53.824 11 82 3.1 102580 57
2005-01-25 08:08:06 51°16.011 2°53.816 9.1 78 3.1 102560 57
2005-01-25 08:08:11 51°16.014 2°53.811 10.4 70 3.1 102560 57
2005-01-25 08:08:16 51°16.017 2°53.806 10.7 74 3.1 102570 58
2005-01-25 08:08:21 51°16.02 2°53.802 12.3 64 3.1 102570 58
2005-01-25 08:08:25 51°16.023 2°53.799 12 56 3.1 102570 57
2005-01-25 08:08:31 51°16.027 2°53.796 13.6 59 3.1 102570 57
2005-01-25 08:08:36 51°16.031 2°53.795 12.9 52 3.1 102560 58
2005-01-25 08:08:40 51°16.035 2°53.794 14.1 38 3.1 102560 58
2005-01-25 08:08:46 51°16.042 2°53.796 14.2 34 3.1 102560 60
2005-01-25 08:08:51 51°16.048 2°53.8 13.1 35 3.1 102560 60
2005-01-25 08:08:56 51°16.053 2°53.804 15.6 34 3.1 102550 58
2005-01-25 08:09:00 51°16.057 2°53.81 13.8 16 3.1 102550 58
2005-01-25 08:09:05 51°16.063 2°53.82 14.7 24 3.1 102540 58
2005-01-25 08:09:11 51°16.068 2°53.832 14.3 10 3.1 102540 58
2005-01-25 08:09:16 51°16.071 2°53.843 12.5 14 3.1 102550 59
2005-01-25 08:09:21 51°16.074 2°53.855 15.4 10 3.1 102550 59
2005-01-25 08:09:26 51°16.078 2°53.868 15.6 12 3.1 102550 60
2005-01-25 08:09:31 51°16.083 2°53.881 15.2 16 3.1 102550 60
2005-01-25 08:09:36 51°16.088 2°53.893 15 16 3.2 102560 62
2005-01-25 08:09:41 51°16.095 2°53.908 15.1 15 3.2 102560 62
2005-01-25 08:09:45 51°16.1 2°53.917 14.4 19 3.2 102570 60
2005-01-25 08:09:51 51°16.107 2°53.933 15.7 15 3.2 102570 60
2005-01-25 08:09:56 51°16.113 2°53.944 15.5 20 3.1 102550 58
2005-01-25 08:10:01 51°16.12 2°53.959 16 11 3.1 102550 58
2005-01-25 08:10:05 51°16.126 2°53.969 15.8 12 3.1 102570 58
2005-01-25 08:10:11 51°16.133 2°53.985 15.7 11 3.1 102570 58
2005-01-25 08:10:16 51°16.14 2°53.998 15.8 14 3.1 102570 59
2005-01-25 08:10:21 51°16.146 2°54.012 15.3 17 3.1 102570 59
2005-01-25 08:10:26 51°16.152 2°54.026 15.2 14 3.1 102560 58
2005-01-25 08:10:31 51°16.159 2°54.041 17.3 15 3.1 102560 58
2005-01-25 08:10:36 51°16.165 2°54.055 16.4 15 3.1 102570 58
2005-01-25 08:10:41 51°16.172 2°54.071 15.4 15 3.1 102570 58
2005-01-25 08:10:46 51°16.177 2°54.086 15.1 12 3.1 102570 59
2005-01-25 08:10:51 51°16.184 2°54.102 15.4 18 3.1 102570 59
2005-01-25 08:10:56 51°16.188 2°54.115 15.8 12 3.1 102560 57
2005-01-25 08:11:00 51°16.193 2°54.126 15.3 15 3.1 102560 57
2005-01-25 08:11:06 51°16.199 2°54.144 13.1 9 3.1 102560 56
2005-01-25 08:11:11 51°16.205 2°54.16 15.3 12 3.1 102560 56
2005-01-25 08:11:16 51°16.209 2°54.171 14 9 3.1 102550 58
2005-01-25 08:11:20 51°16.213 2°54.181 15.9 16 3.1 102550 58
2005-01-25 08:11:26 51°16.218 2°54.195 15.4 14 3.1 102570 60
2005-01-25 08:11:31 51°16.222 2°54.205 14.6 12 3.1 102570 60
2005-01-25 08:11:36 51°16.226 2°54.214 15.2 16 3.1 102580 62
2005-01-25 08:11:40 51°16.229 2°54.22 15.3 21 3.1 102580 62
2005-01-25 08:11:46 51°16.233 2°54.229 15.3 22 3.1 102590 62
2005-01-25 08:11:51 51°16.236 2°54.236 14.9 21 3.1 102590 62
2005-01-25 08:11:56 51°16.239 2°54.241 13.4 21 3.1 102580 59
2005-01-25 08:12:01 51°16.242 2°54.247 14.3 15 3.1 102580 59
2005-01-25 08:12:06 51°16.244 2°54.252 13.8 12 3.1 102590 58
2005-01-25 08:12:11 51°16.245 2°54.257 12.8 8 3.1 102590 58
2005-01-25 08:12:16 51°16.246 2°54.262 13.4 2 3.1 102590 58
2005-01-25 08:12:21 51°16.246 2°54.267 12.4 359 3.1 102590 58
2005-01-25 08:12:25 51°16.247 2°54.271 12.3 358 3.1 102570 58
2005-01-25 08:12:31 51°16.247 2°54.274 11 1 3.1 102570 58
2005-01-25 08:12:35 51°16.247 2°54.277 10.7 359 3.1 102590 58
2005-01-25 08:12:40 51°16.246 2°54.279 12.7 340 3.1 102590 58
2005-01-25 08:12:46 51°16.245 2°54.281 10.7 356 3.1 102600 59
2005-01-25 08:12:51 51°16.244 2°54.282 9.4 353 3.1 102600 59
2005-01-25 08:12:56 51°16.243 2°54.282 9.4 356 3.1 102600 60
2005-01-25 08:13:00 51°16.242 2°54.283 10.6 345 3.1 102600 60
2005-01-25 08:13:06 51°16.241 2°54.282 13.6 347 3.1 102610 62
2005-01-25 08:13:11 51°16.239 2°54.283 13.1 348 3.1 102610 62
2005-01-25 08:13:16 51°16.238 2°54.283 12.2 348 3.1 102610 62
2005-01-25 08:13:20 51°16.236 2°54.283 12.4 348 3.1 102610 62
2005-01-25 08:13:25 51°16.234 2°54.283 10.9 353 3.1 102610 63
2005-01-25 08:13:31 51°16.233 2°54.282 11.7 346 3.1 102610 63
2005-01-25 08:13:36 51°16.231 2°54.282 11.3 346 3.1 102610 61
2005-01-25 08:13:41 51°16.229 2°54.281 12.2 348 3.1 102610 61
2005-01-25 08:13:45 51°16.227 2°54.28 11.7 349 3.1 102600 60
2005-01-25 08:13:51 51°16.225 2°54.279 11 347 3.1 102600 60
2005-01-25 08:13:56 51°16.223 2°54.278 10.9 348 3.1 102600 60
2005-01-25 08:14:01 51°16.221 2°54.276 10.1 343 3.1 102600 60
2005-01-25 08:14:05 51°16.219 2°54.275 9.8 350 3.1 102620 59
2005-01-25 08:14:11 51°16.217 2°54.273 10.2 341 3.1 102620 59
2005-01-25 08:14:16 51°16.215 2°54.271 11.7 347 3.1 102610 59
2005-01-25 08:14:20 51°16.213 2°54.27 12.1 337 3.1 102610 59
2005-01-25 08:14:25 51°16.211 2°54.267 9.9 343 3.1 102610 60
2005-01-25 08:14:30 51°16.208 2°54.265 11.3 340 3.1 102610 60
2005-01-25 08:14:36 51°16.206 2°54.263 11.5 335 3.1 102620 61
2005-01-25 08:14:40 51°16.204 2°54.261 10.4 345 3.1 102620 61
2005-01-25 08:14:46 51°16.202 2°54.259 9.6 343 3.1 102610 60
2005-01-25 08:14:51 51°16.199 2°54.257 10.6 343 3.1 102610 60
2005-01-25 08:14:56 51°16.197 2°54.256 11 335 3.1 102620 60
2005-01-25 08:15:01 51°16.195 2°54.254 12 338 3.1 102620 60
2005-01-25 08:15:06 51°16.192 2°54.253 11.8 341 3.1 102610 60
2005-01-25 08:15:11 51°16.19 2°54.252 12 342 3.1 102610 60
2005-01-25 08:15:16 51°16.188 2°54.25 11.3 343 3.1 102620 61
2005-01-25 08:15:21 51°16.186 2°54.249 11.1 345 3.1 102620 61
2005-01-25 08:15:26 51°16.184 2°54.248 11.1 348 3.1 102610 61
2005-01-25 08:15:31 51°16.182 2°54.246 11.1 349 3.1 102610 61
2005-01-25 08:15:36 51°16.18 2°54.245 11.3 353 3.1 102600 59
2005-01-25 08:15:41 51°16.179 2°54.243 10.9 352 3.1 102600 59
2005-01-25 08:15:45 51°16.176 2°54.242 10 360 3.1 102610 58
2005-01-25 08:15:51 51°16.175 2°54.24 9.5 355 3.1 102610 58
2005-01-25 08:15:56 51°16.172 2°54.239 9.3 2 3.1 102610 59
2005-01-25 08:16:00 51°16.171 2°54.237 10.6 3 3.1 102610 59
2005-01-25 08:16:05 51°16.169 2°54.235 10.1 7 3.1 102610 59
2005-01-25 08:16:11 51°16.167 2°54.233 10.4 6 3.1 102610 59
2005-01-25 08:16:16 51°16.166 2°54.232 10.1 6 3.1 102610 60
2005-01-25 08:16:21 51°16.164 2°54.23 11.3 5 3.1 102610 60
2005-01-25 08:16:26 51°16.163 2°54.228 11.4 4 3.1 102600 61
2005-01-25 08:16:31 51°16.162 2°54.226 9.5 11 3.1 102600 61
2005-01-25 08:16:36 51°16.16 2°54.225 9.4 10 3.1 102590 59
2005-01-25 08:16:41 51°16.159 2°54.222 9.9 23 3.1 102590 59
2005-01-25 08:16:46 51°16.157 2°54.222 8.5 21 3.1 102600 59
2005-01-25 08:16:51 51°16.156 2°54.22 9.4 19 3.1 102600 59
2005-01-25 08:16:56 51°16.154 2°54.218 10.3 27 3.1 102600 61
2005-01-25 08:17:01 51°16.153 2°54.215 9.5 20 3.1 102600 61
2005-01-25 08:17:06 51°16.152 2°54.215 9.8 30 3.1 102600 63
2005-01-25 08:17:11 51°16.151 2°54.211 9 48 3.1 102600 63
2005-01-25 08:17:16 51°16.149 2°54.21 9.9 41 3.2 102600 64
2005-01-25 08:17:21 51°16.148 2°54.206 11.2 39 3.2 102600 64
2005-01-25 08:17:25 51°16.146 2°54.204 10.5 37 3.2 102590 64
2005-01-25 08:17:31 51°16.145 2°54.201 11.5 40 3.2 102590 64
2005-01-25 08:17:36 51°16.143 2°54.197 11.2 43 3.2 102590 65
2005-01-25 08:17:40 51°16.142 2°54.194 10 44 3.2 102590 65
2005-01-25 08:17:46 51°16.14 2°54.191 10.5 48 3.2 102580 62
2005-01-25 08:17:51 51°16.139 2°54.185 10.8 53 3.2 102580 62
2005-01-25 08:17:56 51°16.137 2°54.182 9.9 50 3.2 102580 61
2005-01-25 08:18:01 51°16.135 2°54.177 11.8 53 3.2 102580 61
2005-01-25 08:18:05 51°16.134 2°54.174 12.1 51 3.1 102580 60
2005-01-25 08:18:11 51°16.132 2°54.169 11.5 56 3.1 102580 60
2005-01-25 08:18:16 51°16.129 2°54.165 11.8 57 3.2 102580 61
2005-01-25 08:18:21 51°16.127 2°54.161 11.2 57 3.2 102580 61
2005-01-25 08:18:25 51°16.126 2°54.157 10.3 60 3.1 102580 61
2005-01-25 08:18:31 51°16.123 2°54.152 10.4 65 3.1 102580 61
2005-01-25 08:18:36 51°16.121 2°54.147 9.5 69 3.1 102580 59
2005-01-25 08:18:40 51°16.119 2°54.144 8.6 81 3.1 102580 59
2005-01-25 08:18:46 51°16.116 2°54.139 7.5 79 3.1 102580 59
2005-01-25 08:18:51 51°16.114 2°54.135 9.6 83 3.1 102580 59
2005-01-25 08:18:56 51°16.112 2°54.131 8.2 78 3.1 102580 60
2005-01-25 08:19:00 51°16.11 2°54.126 11.8 89 3.1 102580 60
2005-01-25 08:19:05 51°16.109 2°54.122 10.8 98 3.1 102580 61
2005-01-25 08:19:11 51°16.107 2°54.116 9.6 98 3.1 102580 61
2005-01-25 08:19:16 51°16.107 2°54.111 11.2 97 3.1 102580 61
2005-01-25 08:19:21 51°16.106 2°54.105 11.4 102 3.1 102580 61
2005-01-25 08:19:26 51°16.106 2°54.1 11.7 105 3.1 102570 59
2005-01-25 08:19:31 51°16.106 2°54.092 10.4 110 3.1 102570 59
2005-01-25 08:19:36 51°16.106 2°54.086 10.7 113 3.1 102570 59
2005-01-25 08:19:41 51°16.106 2°54.078 11.1 124 3.1 102570 59
2005-01-25 08:19:45 51°16.106 2°54.071 11 117 3.1 102570 59
2005-01-25 08:19:51 51°16.106 2°54.06 9.6 133 3.1 102570 59
2005-01-25 08:19:56 51°16.106 2°54.052 10.9 44 3.1 102570 60
2005-01-25 08:20:01 51°16.106 2°54.042 9.5 145 3.1 102570 60
2005-01-25 08:20:06 51°16.105 2°54.031 9.6 135 3.1 102570 59
2005-01-25 08:20:11 51°16.103 2°54.018 8 140 3.1 102570 59
2005-01-25 08:20:16 51°16.102 2°54.006 9.3 155 3.1 102570 60
2005-01-25 08:20:21 51°16.1 2°53.993 9.1 149 3.1 102570 60
2005-01-25 08:20:25 51°16.098 2°53.98 9.1 149 3.1 102580 60
2005-01-25 08:20:31 51°16.094 2°53.962 7.6 152 3.1 102580 60
2005-01-25 08:20:36 51°16.092 2°53.947 9.5 150 3.2 102580 62
2005-01-25 08:20:40 51°16.089 2°53.932 7.3 149 3.2 102580 62
2005-01-25 08:20:45 51°16.085 2°53.911 6.7 150 3.2 102580 62
2005-01-25 08:20:49 51°16.083 2°53.895 6.2 161 3.2 102580 62
2005-01-25 08:20:56 51°16.078 2°53.866 6.3 152 3.2 102580 62
2005-01-25 08:21:00 51°16.073 2°53.845 5.2 140 3.2 102580 62
2005-01-25 08:21:05 51°16.07 2°53.821 6 139 3.2 102580 62
2005-01-25 08:21:11 51°16.065 2°53.79 7 135 3.2 102580 62
2005-01-25 08:21:16 51°16.062 2°53.766 7 151 3.2 102570 61
2005-01-25 08:21:21 51°16.058 2°53.735 6.8 145 3.2 102570 61
2005-01-25 08:21:25 51°16.056 2°53.712 6.9 143 3.2 102580 61
2005-01-25 08:21:31 51°16.052 2°53.681 6.8 139 3.2 102580 61
2005-01-25 08:21:36 51°16.049 2°53.651 7.3 225 3.2 102570 61
2005-01-25 08:21:40 51°16.047 2°53.627 5.8 139 3.2 102570 61
2005-01-25 08:21:45 51°16.044 2°53.593 5 133 3.2 102570 60
2005-01-25 08:21:51 51°16.041 2°53.555 6.6 132 3.2 102570 60
2005-01-25 08:21:56 51°16.04 2°53.527 6.2 137 3.2 102570 60
2005-01-25 08:22:00 51°16.038 2°53.498 5.3 130 3.2 102570 60
2005-01-25 08:22:06 51°16.036 2°53.462 4.8 125 3.2 102560 60
2005-01-25 08:22:11 51°16.034 2°53.427 7 116 3.2 102560 60
2005-01-25 08:22:16 51°16.033 2°53.398 6.7 121 3.2 102560 60
2005-01-25 08:22:20 51°16.034 2°53.369 7.5 116 3.2 102560 60
2005-01-25 08:22:25 51°16.036 2°53.337 8 117 3.2 102560 60
2005-01-25 08:22:31 51°16.04 2°53.303 8.4 104 3.2 102560 60
2005-01-25 08:22:36 51°16.045 2°53.272 8.6 110 3.2 102560 60
2005-01-25 08:22:41 51°16.05 2°53.242 9.3 99 3.2 102560 60
2005-01-25 08:22:45 51°16.056 2°53.215 10.4 92 3.2 102600 60
2005-01-25 08:22:50 51°16.063 2°53.19 11.1 89 3.2 102600 60
2005-01-25 08:22:56 51°16.074 2°53.157 10.6 95 3.2 102550 60
2005-01-25 08:23:01 51°16.085 2°53.13 12 87 3.2 102550 60
2005-01-25 08:23:05 51°16.094 2°53.111 11.8 89 3.2 102550 61
2005-01-25 08:23:11 51°16.109 2°53.083 12.5 88 3.2 102550 61
2005-01-25 08:23:16 51°16.119 2°53.063 12.4 84 3.1 102540 60
2005-01-25 08:23:21 51°16.134 2°53.042 10.9 80 3.1 102540 60
2005-01-25 08:23:25 51°16.146 2°53.027 11.3 62 3.1 102530 59
2005-01-25 08:23:31 51°16.162 2°53.008 13.2 65 3.1 102530 59
2005-01-25 08:23:36 51°16.177 2°52.993 12.9 68 3.2 102530 60
2005-01-25 08:23:41 51°16.194 2°52.977 10.7 75 3.2 102530 60
2005-01-25 08:23:45 51°16.206 2°52.965 13.2 68 3.2 102530 59
2005-01-25 08:23:51 51°16.223 2°52.949 13.5 70 3.2 102530 59
2005-01-25 08:23:56 51°16.239 2°52.937 12.7 69 3.2 102520 61
2005-01-25 08:24:01 51°16.255 2°52.925 14.7 65 3.2 102520 61
2005-01-25 08:24:06 51°16.271 2°52.914 15.8 66 3.2 102520 61
2005-01-25 08:24:11 51°16.287 2°52.903 16.6 62 3.2 102520 61
2005-01-25 08:24:16 51°16.304 2°52.893 13.8 60 3.2 102510 62
2005-01-25 08:24:21 51°16.322 2°52.882 16.2 67 3.2 102510 62
2005-01-25 08:24:26 51°16.338 2°52.873 15 67 3.2 102500 61
2005-01-25 08:24:31 51°16.355 2°52.864 16.6 63 3.2 102500 61
2005-01-25 08:24:36 51°16.371 2°52.857 16.1 62 3.2 102500 61
2005-01-25 08:24:40 51°16.384 2°52.849 14.2 59 3.2 102500 61
2005-01-25 08:24:45 51°16.402 2°52.84 14.4 58 3.2 102510 60
2005-01-25 08:24:51 51°16.422 2°52.83 14.7 66 3.2 102510 60
2005-01-25 08:24:56 51°16.437 2°52.822 13.4 60 3.2 102500 61
2005-01-25 08:25:01 51°16.454 2°52.814 15.4 63 3.2 102500 61
2005-01-25 08:25:05 51°16.469 2°52.807 16.8 59 3.2 102480 61
2005-01-25 08:25:11 51°16.489 2°52.798 15.8 61 3.2 102480 61
2005-01-25 08:25:16 51°16.504 2°52.791 15 60 3.2 102500 61
2005-01-25 08:25:20 51°16.519 2°52.784 14.8 55 3.2 102500 61
2005-01-25 08:25:26 51°16.537 2°52.775 13.1 59 3.2 102500 62
2005-01-25 08:25:31 51°16.554 2°52.767 13.8 66 3.2 102500 62
2005-01-25 08:25:36 51°16.571 2°52.76 14.1 59 3.2 102510 60
2005-01-25 08:25:40 51°16.586 2°52.753 14.3 49 3.2 102510 60
2005-01-25 08:25:45 51°16.603 2°52.745 13 52 3.2 102490 62
2005-01-25 08:25:51 51°16.621 2°52.736 15.4 54 3.2 102490 62
2005-01-25 08:25:56 51°16.64 2°52.728 15 53 3.2 102500 62
2005-01-25 08:26:00 51°16.653 2°52.721 14.8 53 3.2 102500 62
2005-01-25 08:26:05 51°16.67 2°52.713 15.1 55 3.3 102510 64
2005-01-25 08:26:10 51°16.687 2°52.705 15.3 53 3.3 102510 64
2005-01-25 08:26:16 51°16.705 2°52.696 15.8 54 3.3 102510 64
2005-01-25 08:26:20 51°16.718 2°52.69 14.6 54 3.3 102510 64
2005-01-25 08:26:25 51°16.736 2°52.681 15.7 54 3.3 102500 61
2005-01-25 08:26:30 51°16.751 2°52.673 15.4 62 3.3 102500 61
2005-01-25 08:26:36 51°16.771 2°52.664 15.5 64 3.3 102500 61
2005-01-25 08:26:41 51°16.787 2°52.656 15.3 58 3.3 102500 61
2005-01-25 08:26:46 51°16.804 2°52.649 13.1 57 3.3 102500 62
2005-01-25 08:26:51 51°16.821 2°52.64 14.8 52 3.3 102500 62
2005-01-25 08:26:56 51°16.836 2°52.633 16 59 3.3 102510 61
2005-01-25 08:27:01 51°16.854 2°52.625 15.7 59 3.3 102510 61
2005-01-25 08:27:05 51°16.867 2°52.619 15.4 60 3.3 102510 60
2005-01-25 08:27:11 51°16.887 2°52.609 15.1 59 3.3 102510 60
2005-01-25 08:27:16 51°16.902 2°52.602 14.4 57 3.3 102510 62
2005-01-25 08:27:20 51°16.914 2°52.595 15 48 3.3 102510 62
2005-01-25 08:27:26 51°16.935 2°52.586 15.5 61 3.2 102500 59
2005-01-25 08:27:31 51°16.953 2°52.578 17.1 56 3.2 102500 59
2005-01-25 08:27:36 51°16.968 2°52.571 16 58 3.2 102500 60
2005-01-25 08:27:41 51°16.986 2°52.563 15.8 56 3.2 102500 60
2005-01-25 08:27:46 51°17.002 2°52.556 15.9 61 3.2 102510 61
2005-01-25 08:27:51 51°17.018 2°52.549 16.3 54 3.2 102510 61
2005-01-25 08:27:56 51°17.034 2°52.541 16.2 60 3.2 102500 59
2005-01-25 08:28:01 51°17.052 2°52.533 15.2 57 3.2 102500 59
2005-01-25 08:28:06 51°17.067 2°52.526 14.7 60 3.2 102500 60
2005-01-25 08:28:11 51°17.085 2°52.517 16.4 56 3.2 102500 60
2005-01-25 08:28:16 51°17.1 2°52.51 15.9 62 3.2 102500 61
2005-01-25 08:28:21 51°17.116 2°52.502 16.2 63 3.2 102500 61
2005-01-25 08:28:25 51°17.131 2°52.495 15.2 59 3.3 102500 61
2005-01-25 08:28:31 51°17.149 2°52.488 14.5 58 3.3 102500 61
2005-01-25 08:28:36 51°17.166 2°52.479 15.6 55 3.2 102500 60
2005-01-25 08:28:41 51°17.182 2°52.471 16.1 57 3.2 102500 60
2005-01-25 08:28:45 51°17.197 2°52.464 14.7 56 3.2 102510 58
2005-01-25 08:28:50 51°17.212 2°52.457 14.9 56 3.2 102510 58
2005-01-25 08:28:56 51°17.232 2°52.447 13.8 61 3.2 102500 59
2005-01-25 08:29:01 51°17.248 2°52.438 12.5 68 3.2 102500 59
2005-01-25 08:29:06 51°17.265 2°52.429 15 66 3.2 102510 58
2005-01-25 08:29:11 51°17.283 2°52.418 14.1 67 3.2 102510 58
2005-01-25 08:29:16 51°17.297 2°52.408 14.4 63 3.2 102510 58
2005-01-25 08:29:21 51°17.314 2°52.395 14.2 66 3.2 102510 58
2005-01-25 08:29:25 51°17.327 2°52.386 15.2 63 3.2 102510 58
2005-01-25 08:29:31 51°17.346 2°52.37 14.3 64 3.2 102510 58
2005-01-25 08:29:36 51°17.36 2°52.358 13.1 58 3.2 102500 61
2005-01-25 08:29:40 51°17.372 2°52.348 14.8 65 3.2 102500 61
2005-01-25 08:29:45 51°17.389 2°52.333 14.4 71 3.2 102520 61
2005-01-25 08:29:51 51°17.406 2°52.317 15.8 62 3.2 102520 61
2005-01-25 08:29:56 51°17.421 2°52.303 14.1 71 3.3 102510 61
2005-01-25 08:30:01 51°17.436 2°52.288 11.2 74 3.3 102510 61
2005-01-25 08:30:06 51°17.451 2°52.273 14 65 3.3 102520 63
2005-01-25 08:30:11 51°17.466 2°52.256 12.7 73 3.3 102520 63
2005-01-25 08:30:16 51°17.48 2°52.24 12.4 73 3.3 102510 62
2005-01-25 08:30:21 51°17.496 2°52.222 13.1 65 3.3 102510 62
2005-01-25 08:30:25 51°17.508 2°52.209 12.4 67 3.3 102510 62
2005-01-25 08:30:31 51°17.524 2°52.191 13.5 67 3.3 102510 62
2005-01-25 08:30:36 51°17.538 2°52.174 13.6 59 3.3 102520 62
2005-01-25 08:30:41 51°17.554 2°52.155 14.2 60 3.3 102520 62
2005-01-25 08:30:45 51°17.566 2°52.142 12.6 72 3.3 102520 61
2005-01-25 08:30:51 51°17.584 2°52.123 12.1 68 3.3 102520 61
2005-01-25 08:30:56 51°17.596 2°52.108 14 64 3.3 102510 61
2005-01-25 08:31:00 51°17.61 2°52.093 14.8 62 3.3 102510 61
2005-01-25 08:31:05 51°17.624 2°52.076 16 62 3.3 102520 61
2005-01-25 08:31:11 51°17.642 2°52.056 14.8 61 3.3 102520 61
2005-01-25 08:31:16 51°17.655 2°52.04 12.6 65 3.3 102510 61
2005-01-25 08:31:21 51°17.668 2°52.023 13 66 3.3 102510 61
2005-01-25 08:31:25 51°17.681 2°52.007 13.8 63 3.3 102530 60
2005-01-25 08:31:31 51°17.697 2°51.988 11.6 75 3.3 102530 60
2005-01-25 08:31:36 51°17.711 2°51.971 12.8 70 3.3 102520 61
2005-01-25 08:31:40 51°17.722 2°51.958 13.5 63 3.3 102520 61
2005-01-25 08:31:46 51°17.739 2°51.936 12.3 72 3.3 102520 61
2005-01-25 08:31:51 51°17.755 2°51.918 12.7 70 3.3 102520 61
2005-01-25 08:31:56 51°17.768 2°51.903 12.1 73 3.3 102510 60
2005-01-25 08:32:01 51°17.781 2°51.888 11.7 75 3.3 102510 60
2005-01-25 08:32:05 51°17.795 2°51.873 11.1 73 3.3 102520 61
2005-01-25 08:32:11 51°17.81 2°51.856 12.5 75 3.3 102520 61
2005-01-25 08:32:16 51°17.825 2°51.839 9.8 79 3.3 102520 59
2005-01-25 08:32:21 51°17.841 2°51.822 11.1 67 3.3 102520 59
2005-01-25 08:32:25 51°17.853 2°51.809 11.5 71 3.3 102520 58
2005-01-25 08:32:31 51°17.869 2°51.79 12.7 59 3.3 102520 58
2005-01-25 08:32:36 51°17.883 2°51.774 11.6 67 3.3 102530 59
2005-01-25 08:32:40 51°17.895 2°51.761 12.7 74 3.3 102530 59
2005-01-25 08:32:45 51°17.911 2°51.742 12.2 69 3.3 102520 61
2005-01-25 08:32:51 51°17.926 2°51.723 11.3 76 3.3 102520 61
2005-01-25 08:32:56 51°17.941 2°51.705 10.5 78 3.3 102520 63
2005-01-25 08:33:01 51°17.957 2°51.688 11.2 80 3.3 102520 63
2005-01-25 08:33:06 51°17.97 2°51.672 11.8 73 3.3 102520 60
2005-01-25 08:33:11 51°17.986 2°51.654 13 81 3.3 102520 60
2005-01-25 08:33:16 51°17.999 2°51.639 9.9 73 3.3 102510 58
2005-01-25 08:33:20 51°18.011 2°51.625 12.1 79 3.3 102510 58
2005-01-25 08:33:25 51°18.027 2°51.606 10.4 73 3.2 102520 58
2005-01-25 08:33:30 51°18.041 2°51.59 10.1 79 3.2 102520 58
2005-01-25 08:33:36 51°18.057 2°51.571 10.7 75 3.2 102520 58
2005-01-25 08:33:41 51°18.073 2°51.553 11.7 75 3.2 102520 58
2005-01-25 08:33:46 51°18.088 2°51.537 12.3 69 3.3 102520 60
2005-01-25 08:33:51 51°18.104 2°51.519 12.9 65 3.3 102520 60
2005-01-25 08:33:56 51°18.117 2°51.504 13.2 69 3.3 102520 61
2005-01-25 08:34:01 51°18.132 2°51.488 13.8 72 3.3 102520 61
2005-01-25 08:34:06 51°18.147 2°51.471 12.8 73 3.3 102530 63
2005-01-25 08:34:11 51°18.162 2°51.454 10.5 70 3.3 102530 63
2005-01-25 08:34:16 51°18.177 2°51.437 12.5 70 3.3 102510 62
2005-01-25 08:34:20 51°18.188 2°51.423 10.2 78 3.3 102510 62
2005-01-25 08:34:25 51°18.204 2°51.404 11.7 69 3.2 102530 60
2005-01-25 08:34:31 51°18.22 2°51.384 12.8 72 3.2 102530 60
2005-01-25 08:34:36 51°18.235 2°51.366 11.2 77 3.2 102510 59
2005-01-25 08:34:40 51°18.247 2°51.352 12.6 69 3.2 102510 59
2005-01-25 08:34:46 51°18.265 2°51.331 12.3 73 3.2 102520 60
2005-01-25 08:34:51 51°18.279 2°51.314 11.2 72 3.2 102520 60
2005-01-25 08:34:56 51°18.294 2°51.297 11.2 71 3.2 102530 59
2005-01-25 08:35:00 51°18.307 2°51.282 13.3 67 3.2 102530 59
2005-01-25 08:35:05 51°18.322 2°51.264 13.7 68 3.2 102520 60
2005-01-25 08:35:11 51°18.34 2°51.242 13.1 66 3.2 102520 60
2005-01-25 08:35:16 51°18.353 2°51.225 12 62 3.2 102520 60
2005-01-25 08:35:21 51°18.366 2°51.208 10.3 68 3.2 102520 60
2005-01-25 08:35:25 51°18.379 2°51.191 13.8 61 3.2 102520 62
2005-01-25 08:35:29 51°18.39 2°51.177 13.4 67 3.2 102520 62
2005-01-25 08:35:36 51°18.409 2°51.152 12.1 69 3.2 102520 62
2005-01-25 08:35:41 51°18.422 2°51.133 12.1 68 3.2 102520 62
2005-01-25 08:35:45 51°18.434 2°51.113 11 80 3.3 102520 64
2005-01-25 08:35:51 51°18.449 2°51.087 10.9 72 3.3 102520 64
2005-01-25 08:35:56 51°18.46 2°51.069 11.1 66 3.3 102530 63
2005-01-25 08:36:01 51°18.473 2°51.052 12.5 63 3.3 102530 63
2005-01-25 08:36:06 51°18.484 2°51.041 11 71 3.3 102520 62
2005-01-25 08:36:11 51°18.496 2°51.033 13.9 58 3.3 102520 62
2005-01-25 08:36:16 51°18.504 2°51.027 12.3 60 3.2 102510 61
2005-01-25 08:36:21 51°18.513 2°51.022 11.6 56 3.2 102510 61
2005-01-25 08:36:26 51°18.521 2°51.017 12.5 57 3.2 102570 62
2005-01-25 08:36:29 51°18.525 2°51.015 10.8 59 3.2 102570 62
2005-01-25 08:36:36 51°18.533 2°51.011 11.6 56 3.2 102580 61
2005-01-25 08:36:41 51°18.538 2°51.008 11.6 45 3.2 102580 61
2005-01-25 08:36:45 51°18.541 2°51.007 11.5 47 3.2 102570 61
2005-01-25 08:36:51 51°18.544 2°51.006 10.6 50 3.2 102570 61
2005-01-25 08:36:56 51°18.545 2°51.005 11 44 3.2 102580 62
2005-01-25 08:37:01 51°18.547 2°51.003 10.6 37 3.2 102580 62
2005-01-25 08:37:05 51°18.548 2°51.002 9.8 37 3.2 102580 63
2005-01-25 08:37:11 51°18.549 2°51 11.5 31 3.2 102580 63
2005-01-25 08:37:16 51°18.55 2°50.999 10.4 33 3.2 102580 63
2005-01-25 08:37:21 51°18.55 2°50.997 9.8 30 3.2 102580 63
2005-01-25 08:37:26 51°18.551 2°50.995 9.5 31 3.2 102580 61
2005-01-25 08:37:31 51°18.551 2°50.993 8.8 30 3.2 102580 61
2005-01-25 08:37:36 51°18.551 2°50.992 9.4 30 3.2 102600 60
2005-01-25 08:37:40 51°18.552 2°50.991 8.6 31 3.2 102600 60
2005-01-25 08:37:45 51°18.552 2°50.988 9.9 30 3.2 102600 60
2005-01-25 08:37:50 51°18.552 2°50.986 9.7 33 3.2 102600 60
2005-01-25 08:37:56 51°18.552 2°50.984 9.2 27 3.2 102610 59
2005-01-25 08:38:01 51°18.551 2°50.982 9.2 29 3.2 102610 59
2005-01-25 08:38:05 51°18.551 2°50.98 9.1 34 3.1 102610 60
2005-01-25 08:38:11 51°18.55 2°50.977 9.7 33 3.1 102610 60
2005-01-25 08:38:16 51°18.55 2°50.974 8.8 28 3.1 102600 61
2005-01-25 08:38:20 51°18.549 2°50.972 8.6 31 3.1 102600 61
2005-01-25 08:38:26 51°18.548 2°50.97 9.6 29 3.1 102600 61
2005-01-25 08:38:31 51°18.547 2°50.967 9.7 28 3.1 102600 61
2005-01-25 08:38:36 51°18.547 2°50.964 8.5 32 3.1 102600 61
2005-01-25 08:38:40 51°18.546 2°50.961 8.1 32 3.1 102600 61
2005-01-25 08:38:45 51°18.544 2°50.959 9.3 26 3.1 102610 61
2005-01-25 08:38:51 51°18.543 2°50.955 8.9 29 3.1 102610 61
2005-01-25 08:38:56 51°18.542 2°50.952 7.9 35 3.1 102610 60
2005-01-25 08:39:00 51°18.54 2°50.949 9 24 3.1 102610 60
2005-01-25 08:39:05 51°18.539 2°50.945 8.7 25 3.1 102610 60
2005-01-25 08:39:10 51°18.537 2°50.942 9.4 30 3.1 102610 60
2005-01-25 08:39:16 51°18.535 2°50.938 9 32 3.1 102620 61
2005-01-25 08:39:21 51°18.534 2°50.934 8.8 26 3.1 102620 61
2005-01-25 08:39:25 51°18.532 2°50.931 9.8 36 3.1 102610 61
2005-01-25 08:39:29 51°18.531 2°50.928 8.4 35 3.1 102610 61
2005-01-25 08:39:36 51°18.528 2°50.923 7.7 27 3.1 102600 61
2005-01-25 08:39:41 51°18.526 2°50.919 8.1 36 3.1 102600 61
2005-01-25 08:39:45 51°18.524 2°50.916 8.9 40 3.1 102600 62
2005-01-25 08:39:51 51°18.522 2°50.911 10.3 40 3.1 102600 62
2005-01-25 08:39:56 51°18.52 2°50.907 9.4 45 3.1 102610 62
2005-01-25 08:40:01 51°18.518 2°50.902 9 48 3.1 102610 62
2005-01-25 08:40:06 51°18.516 2°50.898 9.6 45 3.2 102610 63
2005-01-25 08:40:11 51°18.514 2°50.894 8.9 53 3.2 102610 63
2005-01-25 08:40:16 51°18.511 2°50.889 8.5 51 3.2 102610 65
2005-01-25 08:40:21 51°18.509 2°50.885 8.3 43 3.2 102610 65
2005-01-25 08:40:25 51°18.507 2°50.88 10 48 3.2 102600 65
2005-01-25 08:40:31 51°18.504 2°50.875 9.5 62 3.2 102600 65
2005-01-25 08:40:36 51°18.502 2°50.871 11.2 57 3.2 102610 66
2005-01-25 08:40:41 51°18.499 2°50.866 11.2 58 3.2 102610 66
2005-01-25 08:40:45 51°18.497 2°50.862 10.3 61 3.3 102600 66
2005-01-25 08:40:51 51°18.494 2°50.857 9.3 67 3.3 102600 66
2005-01-25 08:40:56 51°18.492 2°50.852 9 70 3.3 102600 65
2005-01-25 08:41:01 51°18.489 2°50.848 8.3 79 3.3 102600 65
2005-01-25 08:41:05 51°18.486 2°50.843 9.4 76 3.2 102590 62
2005-01-25 08:41:11 51°18.483 2°50.838 6.9 78 3.2 102590 62
2005-01-25 08:41:16 51°18.481 2°50.834 8 79 3.2 102600 62
2005-01-25 08:41:20 51°18.479 2°50.831 7.6 79 3.2 102600 62
2005-01-25 08:41:26 51°18.476 2°50.826 8.2 79 3.2 102600 62
2005-01-25 08:41:31 51°18.475 2°50.821 7.7 80 3.2 102600 62
2005-01-25 08:41:36 51°18.474 2°50.817 9.5 82 3.2 102610 60
2005-01-25 08:41:40 51°18.473 2°50.813 7.6 76 3.2 102610 60
2005-01-25 08:41:45 51°18.473 2°50.808 7.5 79 3.2 102600 60
2005-01-25 08:41:51 51°18.474 2°50.803 8 77 3.2 102600 60
2005-01-25 08:41:56 51°18.476 2°50.799 8 74 3.2 102600 61
2005-01-25 08:42:00 51°18.478 2°50.796 10 66 3.2 102600 61
2005-01-25 08:42:05 51°18.48 2°50.792 9.7 65 3.2 102600 63
2005-01-25 08:42:10 51°18.483 2°50.79 11.1 56 3.2 102600 63
2005-01-25 08:42:16 51°18.487 2°50.789 11.6 51 3.2 102600 63
2005-01-25 08:42:21 51°18.49 2°50.788 11.8 42 3.2 102600 63
2005-01-25 08:42:25 51°18.493 2°50.79 11.6 37 3.2 102590 62
2005-01-25 08:42:31 51°18.497 2°50.792 11.5 32 3.2 102590 62
2005-01-25 08:42:36 51°18.501 2°50.795 11.6 30 3.2 102580 62
2005-01-25 08:42:41 51°18.505 2°50.8 12.4 21 3.2 102580 62
2005-01-25 08:42:46 51°18.51 2°50.806 12.2 20 3.2 102580 61
2005-01-25 08:42:51 51°18.516 2°50.815 14.4 16 3.2 102580 61
2005-01-25 08:42:56 51°18.522 2°50.824 14.7 12 3.2 102590 61
2005-01-25 08:43:01 51°18.528 2°50.836 15.8 14 3.2 102590 61
2005-01-25 08:43:06 51°18.536 2°50.848 15.1 13 3.2 102620 62
2005-01-25 08:43:11 51°18.544 2°50.862 15.7 22 3.2 102620 62
2005-01-25 08:43:16 51°18.552 2°50.876 16.2 18 3.2 102610 63
2005-01-25 08:43:20 51°18.559 2°50.888 15.4 19 3.2 102610 63
2005-01-25 08:43:26 51°18.569 2°50.908 15.9 22 3.1 102560 60
2005-01-25 08:43:31 51°18.578 2°50.924 16.3 16 3.1 102560 60
2005-01-25 08:43:36 51°18.587 2°50.943 16.6 19 3.1 102570 59
2005-01-25 08:43:41 51°18.596 2°50.965 15.9 13 3.1 102570 59
2005-01-25 08:43:45 51°18.602 2°50.981 15.5 12 3.1 102560 60
2005-01-25 08:43:51 51°18.611 2°51.004 14.3 9 3.1 102560 60
2005-01-25 08:43:56 51°18.618 2°51.025 15.6 16 3.1 102550 60
2005-01-25 08:44:01 51°18.625 2°51.046 16.5 10 3.1 102550 60
2005-01-25 08:44:06 51°18.633 2°51.069 15.6 6 3.1 102550 60
2005-01-25 08:44:11 51°18.64 2°51.094 18 8 3.1 102550 60
2005-01-25 08:44:16 51°18.646 2°51.114 17.6 4 3.2 102600 62
2005-01-25 08:44:21 51°18.651 2°51.138 16.8 3 3.2 102600 62
2005-01-25 08:44:26 51°18.658 2°51.161 17 3 3.2 102550 61
2005-01-25 08:44:31 51°18.663 2°51.186 16.2 10 3.2 102550 61
2005-01-25 08:44:36 51°18.668 2°51.209 16.9 11 3.2 102560 60
2005-01-25 08:44:41 51°18.674 2°51.235 15.2 4 3.2 102560 60
2005-01-25 08:44:46 51°18.679 2°51.258 16.5 10 3.2 102560 60
2005-01-25 08:44:51 51°18.685 2°51.284 16.8 7 3.2 102560 60
2005-01-25 08:44:56 51°18.69 2°51.305 16.5 10 3.2 102570 61
2005-01-25 08:45:00 51°18.694 2°51.324 15.3 13 3.2 102570 61
2005-01-25 08:45:05 51°18.7 2°51.35 17 9 3.2 102560 62
2005-01-25 08:45:11 51°18.706 2°51.38 16.3 5 3.2 102560 62
2005-01-25 08:45:16 51°18.711 2°51.401 15.7 5 3.2 102610 61
2005-01-25 08:45:21 51°18.717 2°51.426 17.9 9 3.2 102610 61
2005-01-25 08:45:26 51°18.723 2°51.449 18.7 8 3.2 102560 61
2005-01-25 08:45:31 51°18.728 2°51.476 17.5 6 3.2 102560 61
2005-01-25 08:45:36 51°18.733 2°51.497 17.3 9 3.2 102560 62
2005-01-25 08:45:41 51°18.739 2°51.522 18.1 11 3.2 102560 62
2005-01-25 08:45:45 51°18.743 2°51.543 17.1 13 3.2 102560 61
2005-01-25 08:45:51 51°18.749 2°51.569 17.1 8 3.2 102560 61
2005-01-25 08:45:56 51°18.755 2°51.593 17.4 11 3.2 102560 60
2005-01-25 08:46:01 51°18.761 2°51.618 17.6 10 3.2 102560 60
2005-01-25 08:46:05 51°18.766 2°51.639 17.7 17 3.2 102550 61
2005-01-25 08:46:10 51°18.77 2°51.662 17.9 10 3.2 102550 61
2005-01-25 08:46:16 51°18.778 2°51.69 17.7 12 3.2 102550 62
2005-01-25 08:46:21 51°18.783 2°51.713 16.3 5 3.2 102550 62
2005-01-25 08:46:26 51°18.789 2°51.738 15.4 13 3.2 102560 61
2005-01-25 08:46:31 51°18.795 2°51.765 18.5 9 3.2 102560 61
2005-01-25 08:46:36 51°18.801 2°51.786 18.4 5 3.2 102560 61
2005-01-25 08:46:41 51°18.806 2°51.813 17.8 10 3.2 102560 61
2005-01-25 08:46:45 51°18.811 2°51.832 18.4 7 3.2 102550 62
2005-01-25 08:46:51 51°18.818 2°51.861 17.6 5 3.2 102550 62
2005-01-25 08:46:56 51°18.823 2°51.882 17.7 2 3.2 102560 62
2005-01-25 08:47:01 51°18.829 2°51.907 16.6 8 3.2 102560 62
2005-01-25 08:47:06 51°18.835 2°51.931 18.2 8 3.2 102560 62
2005-01-25 08:47:11 51°18.841 2°51.957 16.8 8 3.2 102560 62
2005-01-25 08:47:16 51°18.847 2°51.979 16.6 6 3.2 102540 61
2005-01-25 08:47:20 51°18.851 2°52.001 17.8 7 3.2 102540 61
2005-01-25 08:47:25 51°18.858 2°52.024 18.3 9 3.2 102550 62
2005-01-25 08:47:31 51°18.864 2°52.053 17.3 11 3.2 102550 62
2005-01-25 08:47:36 51°18.87 2°52.074 16.5 11 3.3 102550 64
2005-01-25 08:47:41 51°18.876 2°52.098 17.5 11 3.3 102550 64
2005-01-25 08:47:45 51°18.881 2°52.12 17.7 13 3.3 102560 62
2005-01-25 08:47:51 51°18.888 2°52.146 18.1 11 3.3 102560 62
2005-01-25 08:47:56 51°18.893 2°52.169 17.5 13 3.3 102550 62
2005-01-25 08:48:00 51°18.898 2°52.189 16.1 2 3.3 102550 62
2005-01-25 08:48:05 51°18.904 2°52.215 16.6 8 3.2 102540 62
2005-01-25 08:48:10 51°18.91 2°52.237 17.5 12 3.2 102540 62
2005-01-25 08:48:16 51°18.917 2°52.265 18.3 8 3.2 102560 60
2005-01-25 08:48:21 51°18.923 2°52.291 17.2 8 3.2 102560 60
2005-01-25 08:48:25 51°18.927 2°52.31 18.3 8 3.2 102540 61
2005-01-25 08:48:31 51°18.935 2°52.338 15.8 4 3.2 102540 61
2005-01-25 08:48:36 51°18.94 2°52.361 16.8 2 3.2 102540 61
2005-01-25 08:48:41 51°18.946 2°52.384 15.5 4 3.2 102540 61
2005-01-25 08:48:45 51°18.951 2°52.406 15.5 7 3.2 102560 61
2005-01-25 08:48:51 51°18.958 2°52.434 15 4 3.2 102560 61
2005-01-25 08:48:56 51°18.963 2°52.455 14.4 8 3.2 102550 59
2005-01-25 08:49:01 51°18.97 2°52.482 17.1 8 3.2 102550 59
2005-01-25 08:49:06 51°18.975 2°52.505 17 9 3.2 102550 60
2005-01-25 08:49:11 51°18.982 2°52.53 16.3 9 3.2 102550 60
2005-01-25 08:49:16 51°18.987 2°52.552 16.3 10 3.2 102550 62
2005-01-25 08:49:21 51°18.994 2°52.579 16.1 9 3.2 102550 62
2005-01-25 08:49:26 51°18.999 2°52.602 15.2 8 3.2 102550 61
2005-01-25 08:49:31 51°19.006 2°52.627 17.2 7 3.2 102550 61
2005-01-25 08:49:36 51°19.011 2°52.649 18.1 7 3.2 102550 61
2005-01-25 08:49:41 51°19.017 2°52.673 18 7 3.2 102550 61
2005-01-25 08:49:46 51°19.023 2°52.697 17.5 6 3.2 102550 62
2005-01-25 08:49:51 51°19.029 2°52.724 17.4 5 3.2 102550 62
2005-01-25 08:49:56 51°19.035 2°52.745 17.7 7 3.2 102540 62
2005-01-25 08:50:01 51°19.04 2°52.769 18.5 3 3.2 102540 62
2005-01-25 08:50:05 51°19.045 2°52.791 16.2 11 3.2 102550 61
2005-01-25 08:50:11 51°19.051 2°52.818 16.1 3 3.2 102550 61
2005-01-25 08:50:16 51°19.058 2°52.842 16.8 1 3.2 102550 60
2005-01-25 08:50:21 51°19.065 2°52.869 16.4 4 3.2 102550 60
2005-01-25 08:50:25 51°19.069 2°52.889 17.2 7 3.2 102550 59
2005-01-25 08:50:31 51°19.077 2°52.918 16.4 7 3.2 102550 59
2005-01-25 08:50:36 51°19.081 2°52.94 16.7 8 3.2 102550 61
2005-01-25 08:50:41 51°19.088 2°52.967 16.1 10 3.2 102550 61
2005-01-25 08:50:46 51°19.093 2°52.99 15.8 6 3.2 102550 62
2005-01-25 08:50:51 51°19.099 2°53.014 14.8 11 3.2 102550 62
2005-01-25 08:50:56 51°19.105 2°53.038 15.9 8 3.2 102560 60
2005-01-25 08:51:01 51°19.111 2°53.065 15.3 3 3.2 102560 60
2005-01-25 08:51:06 51°19.117 2°53.088 16.4 4 3.2 102550 59
2005-01-25 08:51:11 51°19.123 2°53.114 15.9 5 3.2 102550 59
2005-01-25 08:51:16 51°19.129 2°53.136 16.1 5 3.2 102560 61
2005-01-25 08:51:21 51°19.135 2°53.162 16.9 13 3.2 102560 61
2005-01-25 08:51:25 51°19.14 2°53.182 18 6 3.2 102570 62
2005-01-25 08:51:31 51°19.146 2°53.209 18.3 7 3.2 102570 62
2005-01-25 08:51:36 51°19.152 2°53.233 17.8 7 3.2 102560 62
2005-01-25 08:51:41 51°19.158 2°53.258 18.1 6 3.2 102560 62
2005-01-25 08:51:46 51°19.164 2°53.282 18.7 5 3.2 102560 62
2005-01-25 08:51:51 51°19.17 2°53.309 16 7 3.2 102560 62
2005-01-25 08:51:56 51°19.174 2°53.331 17.8 2 3.2 102560 62
2005-01-25 08:52:00 51°19.179 2°53.351 18.5 5 3.2 102560 62
2005-01-25 08:52:05 51°19.184 2°53.378 16.3 5 3.2 102560 62
2005-01-25 08:52:10 51°19.189 2°53.401 16.8 3 3.2 102560 62
2005-01-25 08:52:16 51°19.196 2°53.431 16.9 -999 3.2 102550 63
2005-01-25 08:52:21 51°19.201 2°53.456 17.2 3 3.2 102550 63
2005-01-25 08:52:25 51°19.205 2°53.476 16 1 3.2 102560 62
2005-01-25 08:52:31 51°19.211 2°53.505 16.3 8 3.2 102560 62
2005-01-25 08:52:36 51°19.215 2°53.527 18.5 2 3.2 102560 62
2005-01-25 08:52:40 51°19.219 2°53.547 18.5 4 3.2 102560 62
2005-01-25 08:52:46 51°19.226 2°53.577 17.3 5 3.2 102560 63
2005-01-25 08:52:51 51°19.232 2°53.603 17.4 7 3.2 102560 63
2005-01-25 08:52:56 51°19.236 2°53.624 17.2 3 3.2 102570 63
2005-01-25 08:53:01 51°19.242 2°53.651 16.7 3 3.2 102570 63
2005-01-25 08:53:05 51°19.246 2°53.672 17.2 6 3.2 102550 61
2005-01-25 08:53:11 51°19.251 2°53.698 16.3 7 3.2 102550 61
2005-01-25 08:53:16 51°19.256 2°53.723 16.6 4 3.2 102560 61
2005-01-25 08:53:21 51°19.261 2°53.747 16.3 6 3.2 102560 61
2005-01-25 08:53:25 51°19.267 2°53.769 16.5 5 3.2 102560 60
2005-01-25 08:53:31 51°19.273 2°53.798 17.7 8 3.2 102560 60
2005-01-25 08:53:36 51°19.277 2°53.821 17 7 3.2 102560 59
2005-01-25 08:53:41 51°19.282 2°53.848 17.9 9 3.2 102560 59
2005-01-25 08:53:45 51°19.287 2°53.867 17.9 3 3.2 102570 60
2005-01-25 08:53:51 51°19.292 2°53.897 17.1 6 3.2 102570 60
2005-01-25 08:53:56 51°19.297 2°53.919 19.3 6 3.2 102560 61
2005-01-25 08:54:01 51°19.302 2°53.944 17.1 6 3.2 102560 61
2005-01-25 08:54:06 51°19.308 2°53.968 17.6 5 3.2 102550 60
2005-01-25 08:54:11 51°19.313 2°53.995 16.9 10 3.2 102550 60
2005-01-25 08:54:16 51°19.318 2°54.016 17.4 4 3.2 102560 61
2005-01-25 08:54:21 51°19.322 2°54.041 16.8 5 3.2 102560 61
2005-01-25 08:54:25 51°19.327 2°54.063 15.9 7 3.1 102560 61
2005-01-25 08:54:31 51°19.333 2°54.093 16.7 6 3.1 102560 61
2005-01-25 08:54:36 51°19.338 2°54.114 17.4 2 3.2 102560 62
2005-01-25 08:54:41 51°19.343 2°54.138 16.5 10 3.2 102560 62
2005-01-25 08:54:45 51°19.348 2°54.161 16.6 9 3.2 102570 61
2005-01-25 08:54:51 51°19.354 2°54.19 17.2 9 3.2 102570 61
2005-01-25 08:54:56 51°19.358 2°54.212 16.7 10 3.1 102560 60
2005-01-25 08:55:00 51°19.363 2°54.234 15.7 7 3.1 102560 60
2005-01-25 08:55:06 51°19.368 2°54.261 16.4 5 3.1 102560 60
2005-01-25 08:55:11 51°19.374 2°54.286 14.6 4 3.1 102560 60
2005-01-25 08:55:16 51°19.379 2°54.311 15.5 5 3.1 102570 60
2005-01-25 08:55:21 51°19.385 2°54.337 15.7 7 3.1 102570 60
2005-01-25 08:55:25 51°19.389 2°54.357 16.1 1 3.1 102560 61
2005-01-25 08:55:31 51°19.395 2°54.386 16.9 1 3.1 102560 61
2005-01-25 08:55:36 51°19.4 2°54.408 16 1 3.2 102560 63
2005-01-25 08:55:41 51°19.405 2°54.436 15.3 5 3.2 102560 63
2005-01-25 08:55:45 51°19.41 2°54.455 15.3 1 3.2 102560 63
2005-01-25 08:55:51 51°19.415 2°54.484 16.7 4 3.2 102560 63
2005-01-25 08:55:56 51°19.421 2°54.506 15.6 5 3.2 102570 64
2005-01-25 08:56:00 51°19.424 2°54.526 18.6 2 3.2 102570 64
2005-01-25 08:56:05 51°19.43 2°54.553 18.5 10 3.2 102560 63
2005-01-25 08:56:10 51°19.435 2°54.575 18.5 11 3.2 102560 63